Location: Unspecified
(49.2170°N, 0.0000°E)
Time: 18:53:53
(UTC+00:00)

Transit 2A - Pass Details

Date: 23 June 2019
Orbit: 597 x 962 km, 66.7° (Epoch: 19 August)

Event Time Altitude Azimuth Distance (km) Brightness Sun altitude
Rises 06:50:12 0° 323° (NW) 3,541 9.2 25.2°
Reaches altitude 10° 06:53:12 10° 335° (NNW) 2,545 8.6 25.7°
Maximum altitude 06:58:10 27° 33° (NNE) 1,536 8.4 26.5°
Drops below altitude 10° 07:02:44 10° 91° (E) 2,328 10.3 27.2°
Sets 07:05:22 0° 103° (ESE) 3,186 10.3 27.7°
